Location: Aldenham
(51.6667°N, 0.3500°W)
Time: 05:31:22
(UTC+00:00)

Cosmos 1812 - Pass Details

Date: 18 November 2025
Orbit: 340 x 350 km, 82.5° (Epoch: 10 December)

Event Time Altitude Azimuth Distance (km) Brightness Sun altitude
Rises 17:53:02 0° 188° (S) 2,233 6.2 -16.1°
Reaches altitude 10° 17:55:01 10° 188° (S) 1,382 5.1 -16.4°
Maximum altitude 17:58:01 87° 103° (ESE) 379 1.9 -16.8°
Enters shadow 17:59:23 29° 11° (NNE) 719 3.2 -17.0°
